Regional Weather Roundup
Issued by NWS Wakefield, VA

Home | Current Version | Previous Version | Text Only | Print | Product List | Glossary On
Versions: 1 2 3 4 5 6 7 8 9 10 11 12 13 14 15 16 17 18 19 20 21 22 23 24 25 26 27
000
ASUS41 KAKQ 250310
RWRAKQ

REGIONAL WEATHER ROUNDUP
NATIONAL WEATHER SERVICE WAKEFIELD VA
1100 PM EDT THU APR 24 2014

Note: "fair" indicates few or no clouds below 12,000 feet with no
significant weather and/or obstructions to visibility. * = Denotes
station may not report precipitation (e.g., rain,snow,etc.),
thunder or fog.

VAZ042-051-052>054-056-250400-
NORTHERN VIRGINIA

CITY           SKY/WX    TMP DP  RH WIND       PRES   REMARKS
WASH NATIONAL  MOCLDY    58  33  39 S3        30.04S
DULLES         MOCLDY    48  32  53 E3        30.02F
FORT BELVOIR   MOCLDY    47  30  51 CALM      30.04S
QUANTICO       MOCLDY    51  36  56 NW3       30.04S
FREDERICKSBRG* MOCLDY    50  35  56 CALM      30.02F
STAFFORD*      MOCLDY    45  35  67 CALM      30.07S
WARRENTON      MOCLDY    48  39  72 CALM      30.02S
CULPEPER*      MOCLDY    46  34  61 CALM      30.03F
MANASSAS*      MOCLDY    46  37  71 CALM      30.03S
LEESBURG*      MOCLDY    46  34  61 CALM      30.04S
WINCHESTER     CLOUDY    48  28  46 CALM      30.01F
$$

VAZ048-049-060>072-079>083-250400-
CENTRAL AND SOUTH CENTRAL VIRGINIA...AND NORTH CENTRAL NORTH CAROLINA

CITY           SKY/WX    TMP DP  RH WIND       PRES   REMARKS
RICHMOND       MOCLDY    54  30  40 CALM      30.03S
CHESTERFIELD*  MOCLDY    48  28  46 CALM      30.04S
HANOVER        PTCLDY    46  35  65 CALM      30.04S
TAPPAHANNOCK*  PTCLDY    46  31  54 CALM      30.04F
CHARLOTTSVILLE MOCLDY    53  26  35 N3        30.01S
ORANGE*        MOCLDY    45  37  76 CALM      30.03S
LOUISA*        MOCLDY    52  27  37 SE3       30.01S
FARMVILLE*     MOCLDY    55  30  38 CALM      29.98F
SOUTH HILL*    MOCLDY   N/A N/A N/A CALM      30.07S
ROANOKE RAPIDS MOCLDY    50  43  76 CALM      30.03S
RALEIGH        PTCLDY    58  37  45 SE6       30.01F
$$

VAZ088>098-250400-
SOUTHEAST VIRGINIA

CITY           SKY/WX    TMP DP  RH WIND       PRES   REMARKS
NORFOLK        CLEAR     53  37  54 SE5       30.05F
VIRGINIA BEACH MOCLDY    50  40  68 CALM      30.05F
NORFOLK NAVAL  MOCLDY    53  36  52 E5        30.06F
WEST POINT*    MOCLDY    51  38  60 E3        30.06F
NEWPORT NEWS   PTCLDY    53  37  54 E5        30.05F
LANGLEY AFB    PTCLDY    54  43  67 S3        30.06S
FORT EUSTIS    PTCLDY    54  37  53 SE5       30.03S
WILLIAMSBURG*  PTCLDY    52  43  71 SE5       30.05F
FRANKLIN*      PTCLDY    54  39  58 E3        30.04F
WAKEFIELD      PTCLDY    48  37  65 CALM      30.04F
$$

VAZ020-022-025-037-045-250400-
WESTERN AND SOUTHWEST VIRGINIA

CITY           SKY/WX    TMP DP  RH WIND       PRES   REMARKS
STAUNTON*      MOCLDY    46  37  70 CALM      30.01S
HOT SPRINGS VA MOCLDY    52  30  43 S10       30.06S
LYNCHBURG      MOCLDY    53  34  48 S3        30.01S
DANVILLE       MOCLDY    56  41  57 CALM      29.99F
MARTINSVILLE     N/A     49  43  79 CALM      30.01S
ROANOKE        MOCLDY    59  34  39 SE7       30.00S
BLACKSBURG     MOCLDY    54  41  62 CALM      30.03R
DUBLIN*        MOCLDY    55  38  52 CALM      30.01R
MARION*        PTCLDY    58  34  39 CALM      30.02R
HILLSVILLE*    PTCLDY    55  30  38 S6        30.03S
RICHLANDS*     PTCLDY    63  35  35 SE7       29.96S
WISE*          PTCLDY    63  21  20 S6        29.95S
ABINGDON*      CLEAR     63  33  32 CALM      29.95S
$$

MDZ021>025-VAZ099-100-250400-
SOUTHERN MARYLAND AND THE DELMARVA PENINSULA

CITY           SKY/WX    TMP DP  RH WIND       PRES   REMARKS
PATUXENT RIVER MOCLDY    42  34  73 CALM      30.04S
BAY BRIDGE APT CLEAR     50  41  71 CALM      30.04S
LEONARDTOWN    PTCLDY    46  30  53 CALM      30.05F
DOVER          CLEAR     46  27  48 W5        29.99S
GEORGETOWN     CLEAR     45  30  55 CALM      30.04S
EASTON         PTCLDY    50  34  54 CALM      30.07
CAMBRIDGE      PTCLDY    45  36  70 CALM      30.04F
SALISBURY      CLEAR     47  31  53 CALM      30.04F
OCEAN CITY     CLEAR     42  31  64 W5        30.04S
WALLOPS ISLAND CLEAR     46  36  68 NW3       30.05S
ACCOMACK*      PTCLDY    43  32  65 CALM      30.05F
$$

NCZ012>017-030>032-250400-
EASTERN NORTH CAROLINA

CITY           SKY/WX    TMP DP  RH WIND       PRES   REMARKS
ELIZABETH CITY CLEAR     53  46  77 SE6       30.07S
AHOSKIE*       PTCLDY    47  42  81 CALM      30.04F
EDENTON*       CLEAR     54  47  77 SE3       30.05S
CURRITUCK*     CLEAR     50  36  60 S3        30.07F
KILL DEVIL HLS CLEAR     49  42  76 CALM      30.07S
MANTEO         CLEAR     49  45  85 SE3       30.08S
CAPE HATTERAS  PTCLDY    57  39  51 S5        30.07S
GOLDSBORO      CLEAR     57  45  64 SE5       30.02S
WASHINGTON     CLEAR     58  48  68 S5        30.06S
GREENVILLE     CLEAR     52  45  76 S3        30.06S
NEW BERN       CLEAR     52  45  77 CALM      30.07S
WILMINGTON     CLEAR     57  51  80 CALM      30.04F
$$

VAZ048-250400-
ELSEWHERE

CITY           SKY/WX    TMP DP  RH WIND       PRES   REMARKS
HARRISBURG PA  PTCLDY    52  29  41 CALM      30.02R
BALTIMORE      MOCLDY    48  28  46 CALM      30.02F
ANNAPOLIS      PTCLDY    51  36  56 CALM      30.03S
ANDREWS AFB    MOCLDY    47  30  51 S3        30.03S
WILMINGTON DE  CLEAR     52  21  29 CALM      30.04R
PHILADELPHIA   CLEAR     54  11  18 N9        30.03S
WILDWOOD NJ*   CLEAR     52  30  43 W6        30.03S
ATLANTIC CITY  CLEAR     48  19  31 NW3       30.01S
HENDERSON NC   CLEAR     57  34  41 CALM      30.01F
GREENSBORO     CLEAR     58  39  49 S5        29.99R
ROCKY MOUNT    CLEAR     50  43  77 S3        30.03S
FAYETTEVILLE   CLEAR     60  47  61 S7        30.01F
CHARLOTTE      PTCLDY    63  44  50 SE5       29.99R
$$

VAZ100-250400-
MARINE

STATION/POSITION TIME  TEMP    WIND        PRES    WAVE   SWELL
                       AIR SEA DIR/SP/G            HT/PER HT/PER
                 (UTC) (F)     (DEG/KT/KT) (MB)    (FT/S) (FT/S)
44066 TX TWR #4  0300   48 45  330/ 10/ 12 1014.5R   3/ 5   2/ 5
CAPE MAY NJ      0300   54 58  300/  6/  7 1016.3S
LEWES DE         0300   54 51  250/  5/  6 1016.2S
15NM E FENWICK I 0300   50 47              1016.7F   1/14
OCEAN-CITY-INLET 0300   52 49  300/  3/  4 1016.9S
WACHAPREAGUE VA  0300   49 58  280/  2/  3 1017.3S
THOMAS POINT MD  0300   55 53  200/  7/  8 1017.5F
GOOSES REEF MD   0300   53     240/  4/  4   N/A
COVE POINT MD    0300   57     190/  5/  5 1017.1F
SOLOMONS ISLAND  0300      56                N/A
BISHOPS HEAD MD  0300   56 57     CALM     1017.1F
PINEY POINT MD   0300          120/  5/  5   N/A
POTOMAC MD       0300   55     180/  6/  6 1016.8F
CAMBRIDGE MD     0300   51 58  210/  4/  4 1016.8S
LEWISETTA VA     0300   53 57  210/  2/  2 1017.2S
RAPPAHANNOCK LGT 0300          140/  4/  6 1017.9F
STINGRAY PT      0300   56     170/  4/  6 1017.6S
YORK RVR RNG VA  0300   57     160/  8/  9 1016.8F
YORKTOWN VA      0300   54 56  160/  3/  3 1017.2F
JAMESTOWN VA     0300   56     120/  6/  8   N/A
DOMINION TERM VA 0300   57     150/  8/  9 1017.4F
KIPTOPEKE VA     0300      57  170/  7/  9   N/A
CHES BAY BRIDGE  0300   54 54  140/  7/  7 1017.5F
CAPE HENRY VA    0300   52     150/  6/  7   N/A
CHESAPEAKE LGHT  0200   54     190/  8/  9 1018.6R
WILLOUBY STN VA  0300   55     130/  5/  5 1016.7F
S CRANEY ISL VA  0300          120/  2/  4 1017.6F
CAPE HENRY BUOY  0300      48                N/A     1/ 6
1ST LANDING BUOY 0300      49                N/A     1/13   2/13
64NM E OF VA BCH 0300   51 49  240/  8/  8 1018.1R   3/ 7   3/ 7
DUCK PIER NC     0300   53 53  130/  7/  8 1017.3F
44100 DUCK FRF   0300      49                N/A     3/ 8
44056 DUCK FRF   0300      53                N/A     2/ 7
OREGON INLET NC  0300   50 56  100/  4/  5 1018.5S
HATTERAS NC      0300   61 64  180/  2/  5 1018.3F
CAPE LOOKOUT NC  0200   61     120/  5/  5 1017.9R
FRYING PAN SHLS  0300   69 68  150/ 10/ 14 1016.6F   4/ 9   3/ 9
$$



USA.gov is the U.S. government's official web portal to all federal, state and local government web resources and services.